QPF
0.03 0.03 0.02 0.00 0.01 0.01 0.01 0.01 0.01 0.01 0.01 0.01 0.01 0.00 0.00 0.00 0.00 0.00 0.00 0.00 0.01 0.04 0.05 0.06 0.05 0.03 0.03 0.03 0.03 0.03 0.03 0.02 0.02 0.02 0.02 0.02 0.02 0.02 0.02 0.01 0.02 0.02 0.03
0.04 0.05 0.05 0.02 0.01 0.01 0.01 0.01 0.02 0.02 0.02 0.02 0.02 0.02 0.02 0.01 0.01 0.01 0.01 0.01 0.02 0.03 0.06 0.06 0.07 0.06 0.04 0.03 0.03 0.03 0.03 0.03 0.02 0.02 0.02 0.02 0.02 0.02 0.02 0.02 0.02 0.02 0.04
0.05 0.06 0.06 0.05 0.03 0.02 0.01 0.02 0.03 0.03 0.02 0.02 0.02 0.02 0.03 0.03 0.03 0.03 0.02 0.02 0.03 0.04 0.05 0.06 0.07 0.08 0.05 0.03 0.03 0.03 0.03 0.02 0.02 0.03 0.04 0.03 0.01 0.01 0.02 0.02 0.01 0.02 0.02
0.04 0.05 0.05 0.05 0.05 0.05 0.04 0.04 0.05 0.04 0.03 0.03 0.02 0.02 0.02 0.02 0.03 0.03 0.03 0.04 0.06 0.05 0.04 0.06 0.07 0.07 0.07 0.06 0.05 0.05 0.04 0.04 0.04 0.04 0.03 0.02 0.02 0.01 0.01 0.01 0.01 0.01 0.01
0.03 0.04 0.05 0.05 0.05 0.05 0.06 0.06 0.05 0.05 0.05 0.04 0.03 0.02 0.02 0.02 0.03 0.03 0.04 0.05 0.06 0.06 0.05 0.05 0.06 0.07 0.06 0.07 0.07 0.07 0.06 0.04 0.04 0.03 0.03 0.02 0.01 0.01 0.01 0.02 0.01 0.01 0.01
0.03 0.03 0.04 0.04 0.04 0.05 0.05 0.05 0.06 0.06 0.06 0.06 0.05 0.04 0.02 0.02 0.03 0.03 0.04 0.06 0.07 0.06 0.06 0.06 0.07 0.08 0.08 0.07 0.07 0.08 0.07 0.05 0.04 0.03 0.03 0.03 0.03 0.03 0.03 0.02 0.02 0.01 0.01
0.06 0.04 0.03 0.03 0.03 0.04 0.05 0.05 0.06 0.06 0.06 0.06 0.07 0.08 0.06 0.04 0.02 0.03 0.03 0.04 0.05 0.06 0.06 0.05 0.06 0.08 0.10 0.12 0.10 0.08 0.08 0.07 0.05 0.03 0.02 0.03 0.03 0.04 0.04 0.04 0.03 0.02 0.02
0.06 0.06 0.05 0.04 0.02 0.02 0.03 0.04 0.05 0.05 0.05 0.06 0.07 0.09 0.10 0.09 0.05 0.03 0.03 0.03 0.04 0.04 0.05 0.05 0.05 0.05 0.08 0.10 0.09 0.07 0.07 0.06 0.05 0.03 0.02 0.03 0.03 0.04 0.05 0.04 0.04 0.03 0.03
0.04 0.05 0.05 0.06 0.05 0.04 0.02 0.02 0.03 0.05 0.04 0.05 0.05 0.06 0.06 0.06 0.05 0.04 0.03 0.02 0.03 0.03 0.04 0.04 0.05 0.05 0.06 0.07 0.06 0.05 0.05 0.05 0.04 0.04 0.04 0.04 0.04 0.04 0.06 0.07 0.06 0.04 0.03
0.04 0.04 0.04 0.04 0.05 0.05 0.04 0.03 0.03 0.05 0.06 0.06 0.05 0.03 0.03 0.03 0.03 0.04 0.03 0.03 0.03 0.04 0.04 0.05 0.05 0.05 0.05 0.05 0.05 0.04 0.04 0.03 0.03 0.05 0.06 0.06 0.05 0.05 0.06 0.08 0.07 0.06 0.05
0.03 0.04 0.04 0.04 0.04 0.04 0.04 0.04 0.03 0.04 0.05 0.05 0.04 0.03 0.02 0.02 0.02 0.02 0.02 0.03 0.03 0.04 0.04 0.04 0.04 0.05 0.05 0.05 0.05 0.04 0.04 0.03 0.03 0.06 0.10 0.10 0.08 0.07 0.09 0.09 0.08 0.08 0.07
0.03 0.03 0.04 0.04 0.04 0.03 0.04 0.04 0.03 0.03 0.04 0.04 0.04 0.03 0.02 0.02 0.02 0.02 0.02 0.02 0.02 0.03 0.04 0.04 0.04 0.04 0.04 0.05 0.06 0.06 0.05 0.04 0.03 0.04 0.09 0.11 0.11 0.10 0.09 0.08 0.08 0.08 0.09
0.03 0.03 0.03 0.03 0.03 0.03 0.03 0.04 0.04 0.03 0.03 0.03 0.04 0.05 0.03 0.02 0.01 0.01 0.01 0.01 0.01 0.02 0.03 0.05 0.05 0.04 0.04 0.04 0.05 0.07 0.06 0.05 0.04 0.03 0.05 0.07 0.10 0.10 0.08 0.06 0.06 0.06 0.06
0.03 0.02 0.03 0.03 0.03 0.03 0.03 0.03 0.04 0.03 0.03 0.02 0.03 0.03 0.03 0.03 0.02 0.02 0.01 0.01 0.01 0.02 0.02 0.03 0.04 0.05 0.05 0.04 0.05 0.06 0.05 0.05 0.04 0.03 0.03 0.04 0.05 0.08 0.11 0.07 0.05 0.05 0.05
0.03 0.02 0.02 0.02 0.03 0.03 0.03 0.03 0.03 0.03 0.02 0.02 0.02 0.02 0.02 0.02 0.02 0.02 0.01 0.01 0.02 0.02 0.02 0.03 0.03 0.03 0.03 0.04 0.05 0.05 0.05 0.06 0.05 0.04 0.03 0.03 0.03 0.05 0.08 0.12 0.07 0.03 0.04
0.04 0.02 0.02 0.02 0.02 0.03 0.04 0.04 0.04 0.03 0.03 0.02 0.02 0.02 0.01 0.01 0.01 0.02 0.02 0.02 0.01 0.02 0.02 0.02 0.03 0.03 0.03 0.03 0.05 0.05 0.04 0.06 0.06 0.04 0.03 0.03 0.03 0.04 0.05 0.08 0.11 0.08 0.04
0.03 0.02 0.02 0.02 0.03 0.03 0.03 0.04 0.04 0.04 0.04 0.03 0.03 0.02 0.02 0.01 0.02 0.02 0.02 0.02 0.02 0.02 0.02 0.01 0.02 0.03 0.04 0.03 0.04 0.04 0.04 0.05 0.05 0.05 0.03 0.02 0.02 0.02 0.04 0.05 0.07 0.09 0.07
0.02 0.02 0.02 0.02 0.03 0.03 0.03 0.03 0.04 0.05 0.04 0.04 0.04 0.03 0.03 0.02 0.02 0.02 0.02 0.02 0.02 0.02 0.02 0.01 0.01 0.02 0.02 0.03 0.03 0.03 0.04 0.04 0.04 0.05 0.04 0.03 0.02 0.02 0.03 0.03 0.04 0.05 0.07
0.03 0.02 0.02 0.03 0.03 0.04 0.04 0.03 0.04 0.05 0.05 0.04 0.04 0.04 0.03 0.03 0.02 0.02 0.03 0.03 0.03 0.03 0.02 0.02 0.02 0.01 0.02 0.02 0.03 0.03 0.03 0.03 0.03 0.04 0.04 0.04 0.03 0.03 0.03 0.03 0.03 0.04 0.05
0.05 0.04 0.04 0.05 0.04 0.05 0.05 0.04 0.04 0.05 0.05 0.04 0.04 0.04 0.04 0.03 0.03 0.03 0.02 0.02 0.02 0.02 0.03 0.03 0.03 0.02 0.02 0.02 0.02 0.03 0.03 0.03 0.03 0.02 0.03 0.03 0.03 0.03 0.03 0.03 0.03 0.03 0.03
0.04 0.04 0.04 0.04 0.06 0.06 0.07 0.05 0.04 0.05 0.05 0.05 0.04 0.04 0.04 0.04 0.03 0.03 0.02 0.02 0.02 0.02 0.03 0.03 0.03 0.03 0.02 0.02 0.02 0.02 0.02 0.02 0.03 0.02 0.02 0.02 0.02 0.02 0.02 0.02 0.02 0.02 0.03
0.03 0.04 0.04 0.03 0.03 0.06 0.08 0.07 0.05 0.04 0.05 0.05 0.05 0.04 0.04 0.04 0.04 0.03 0.02 0.02 0.02 0.02 0.03 0.03 0.03 0.03 0.03 0.02 0.02 0.02 0.02 0.02 0.02 0.02 0.01 0.01 0.01 0.01 0.01 0.01 0.01 0.01 0.02
0.04 0.05 0.05 0.03 0.02 0.02 0.05 0.08 0.07 0.05 0.04 0.05 0.04 0.04 0.04 0.03 0.03 0.02 0.02 0.02 0.02 0.02 0.03 0.03 0.03 0.03 0.03 0.02 0.02 0.02 0.02 0.02 0.01 0.01 0.01 0.01 0.01 0.01 0.01 0.01 0.01 0.01 0.01
0.05 0.05 0.05 0.05 0.02 0.02 0.03 0.04 0.06 0.06 0.05 0.04 0.04 0.04 0.04 0.03 0.03 0.02 0.02 0.01 0.01 0.02 0.02 0.02 0.02 0.02 0.02 0.02 0.02 0.02 0.02 0.02 0.01 0.01 0.01 0.01 0.01 0.01 0.01 0.01 0.01 0.02 0.02
0.05 0.05 0.05 0.05 0.03 0.02 0.03 0.03 0.04 0.05 0.05 0.05 0.05 0.04 0.04 0.03 0.03 0.03 0.02 0.01 0.01 0.01 0.02 0.02 0.03 0.03 0.03 0.03 0.03 0.02 0.02 0.02 0.02 0.01 0.01 0.01 0.01 0.01 0.01 0.01 0.01 0.02 0.02
0.06 0.06 0.06 0.05 0.04 0.03 0.03 0.03 0.03 0.03 0.04 0.04 0.05 0.04 0.04 0.03 0.03 0.03 0.02 0.02 0.01 0.01 0.01 0.02 0.02 0.02 0.03 0.03 0.03 0.02 0.02 0.02 0.02 0.01 0.01 0.01 0.01 0.01 0.01 0.01 0.01 0.01 0.02
MSLP
1021.58 1021.42 1021.19 1020.92 1020.66 1020.42 1020.22 1020.07 1019.96 1019.87 1019.76 1019.64 1019.48 1019.30 1019.09 1018.88 1018.67 1018.50 1018.35 1018.22 1018.11 1018.03 1017.95 1017.91 1017.89 1017.93 1018.01 1018.15 1018.34 1018.55 1018.77 1018.99 1019.19 1019.36 1019.52 1019.68 1019.85 1020.04 1020.26 1020.50 1020.75 1021.00 1021.23
1021.99 1021.80 1021.56 1021.29 1021.03 1020.79 1020.60 1020.44 1020.31 1020.18 1020.04 1019.87 1019.66 1019.43 1019.18 1018.93 1018.70 1018.48 1018.30 1018.13 1017.98 1017.85 1017.73 1017.63 1017.58 1017.57 1017.63 1017.75 1017.92 1018.12 1018.34 1018.56 1018.76 1018.94 1019.10 1019.26 1019.43 1019.63 1019.86 1020.12 1020.40 1020.70 1020.99
1022.29 1022.08 1021.83 1021.57 1021.32 1021.10 1020.92 1020.77 1020.63 1020.49 1020.31 1020.10 1019.86 1019.59 1019.31 1019.03 1018.77 1018.53 1018.31 1018.11 1017.92 1017.73 1017.56 1017.42 1017.32 1017.27 1017.29 1017.38 1017.52 1017.71 1017.91 1018.12 1018.30 1018.47 1018.62 1018.76 1018.93 1019.12 1019.35 1019.62 1019.93 1020.27 1020.61
1022.54 1022.31 1022.06 1021.81 1021.59 1021.40 1021.24 1021.10 1020.95 1020.79 1020.59 1020.35 1020.07 1019.77 1019.46 1019.17 1018.89 1018.63 1018.39 1018.16 1017.93 1017.71 1017.50 1017.31 1017.17 1017.08 1017.06 1017.12 1017.23 1017.38 1017.56 1017.73 1017.89 1018.02 1018.13 1018.25 1018.38 1018.55 1018.76 1019.03 1019.36 1019.73 1020.12
1022.76 1022.52 1022.28 1022.06 1021.87 1021.71 1021.57 1021.44 1021.29 1021.10 1020.87 1020.60 1020.29 1019.97 1019.65 1019.34 1019.05 1018.78 1018.53 1018.29 1018.04 1017.79 1017.55 1017.33 1017.15 1017.03 1016.98 1017.00 1017.07 1017.19 1017.32 1017.45 1017.56 1017.64 1017.71 1017.77 1017.85 1017.97 1018.15 1018.40 1018.72 1019.10 1019.53
1022.98 1022.76 1022.55 1022.36 1022.21 1022.07 1021.95 1021.81 1021.65 1021.43 1021.17 1020.86 1020.52 1020.18 1019.85 1019.53 1019.24 1018.97 1018.72 1018.46 1018.21 1017.94 1017.69 1017.45 1017.25 1017.11 1017.03 1017.02 1017.06 1017.14 1017.23 1017.31 1017.36 1017.38 1017.39 1017.38 1017.40 1017.46 1017.59 1017.80 1018.08 1018.45 1018.87
1023.23 1023.04 1022.87 1022.72 1022.60 1022.49 1022.37 1022.22 1022.03 1021.78 1021.47 1021.13 1020.76 1020.40 1020.05 1019.74 1019.45 1019.18 1018.92 1018.67 1018.41 1018.14 1017.87 1017.63 1017.42 1017.27 1017.18 1017.15 1017.16 1017.20 1017.25 1017.28 1017.28 1017.24 1017.18 1017.12 1017.07 1017.07 1017.13 1017.27 1017.50 1017.82 1018.21
1023.52 1023.37 1023.24 1023.13 1023.04 1022.94 1022.82 1022.65 1022.42 1022.13 1021.78 1021.40 1021.01 1020.63 1020.27 1019.95 1019.65 1019.38 1019.13 1018.86 1018.60 1018.33 1018.06 1017.81 1017.61 1017.45 1017.35 1017.31 1017.30 1017.32 1017.33 1017.32 1017.28 1017.20 1017.09 1016.98 1016.87 1016.80 1016.80 1016.87 1017.03 1017.27 1017.60
1023.83 1023.72 1023.64 1023.57 1023.50 1023.40 1023.26 1023.06 1022.79 1022.46 1022.08 1021.67 1021.25 1020.86 1020.49 1020.16 1019.86 1019.58 1019.30 1019.03 1018.74 1018.46 1018.18 1017.94 1017.73 1017.58 1017.48 1017.43 1017.41 1017.41 1017.41 1017.38 1017.31 1017.21 1017.08 1016.93 1016.79 1016.67 1016.61 1016.61 1016.68 1016.84 1017.07
1024.16 1024.10 1024.05 1024.00 1023.93 1023.83 1023.67 1023.44 1023.14 1022.77 1022.37 1021.94 1021.51 1021.10 1020.73 1020.38 1020.06 1019.76 1019.45 1019.14 1018.83 1018.52 1018.23 1017.97 1017.75 1017.60 1017.50 1017.45 1017.43 1017.42 1017.41 1017.38 1017.31 1017.21 1017.07 1016.92 1016.77 1016.63 1016.53 1016.47 1016.47 1016.53 1016.66
1024.53 1024.49 1024.46 1024.41 1024.34 1024.22 1024.03 1023.77 1023.44 1023.06 1022.64 1022.21 1021.78 1021.37 1020.99 1020.63 1020.29 1019.94 1019.59 1019.23 1018.87 1018.51 1018.19 1017.91 1017.68 1017.51 1017.41 1017.35 1017.33 1017.32 1017.31 1017.28 1017.22 1017.14 1017.03 1016.91 1016.77 1016.64 1016.52 1016.42 1016.36 1016.33 1016.36
1024.94 1024.91 1024.87 1024.81 1024.71 1024.56 1024.34 1024.06 1023.71 1023.32 1022.91 1022.49 1022.08 1021.68 1021.29 1020.91 1020.53 1020.14 1019.73 1019.30 1018.88 1018.48 1018.11 1017.79 1017.54 1017.35 1017.23 1017.16 1017.13 1017.11 1017.10 1017.08 1017.04 1016.99 1016.92 1016.84 1016.74 1016.64 1016.53 1016.42 1016.31 1016.22 1016.16
1025.40 1025.35 1025.28 1025.19 1025.06 1024.87 1024.62 1024.31 1023.96 1023.58 1023.18 1022.79 1022.40 1022.02 1021.63 1021.23 1020.81 1020.36 1019.89 1019.40 1018.91 1018.45 1018.03 1017.68 1017.39 1017.18 1017.04 1016.94 1016.89 1016.85 1016.83 1016.81 1016.79 1016.76 1016.73 1016.69 1016.65 1016.59 1016.51 1016.41 1016.29 1016.17 1016.05
1025.92 1025.83 1025.72 1025.58 1025.39 1025.16 1024.87 1024.55 1024.19 1023.83 1023.46 1023.10 1022.74 1022.38 1022.00 1021.58 1021.12 1020.62 1020.09 1019.54 1018.99 1018.48 1018.02 1017.63 1017.31 1017.08 1016.90 1016.77 1016.68 1016.62 1016.56 1016.52 1016.50 1016.48 1016.48 1016.49 1016.49 1016.48 1016.44 1016.37 1016.27 1016.13 1015.98
1026.45 1026.32 1026.16 1025.96 1025.72 1025.44 1025.12 1024.78 1024.43 1024.08 1023.74 1023.42 1023.09 1022.74 1022.36 1021.93 1021.44 1020.90 1020.32 1019.72 1019.14 1018.59 1018.10 1017.69 1017.36 1017.09 1016.89 1016.72 1016.58 1016.47 1016.37 1016.29 1016.24 1016.22 1016.22 1016.25 1016.29 1016.32 1016.32 1016.29 1016.21 1016.09 1015.95
1026.98 1026.79 1026.58 1026.32 1026.03 1025.70 1025.35 1024.99 1024.64 1024.31 1024.00 1023.70 1023.39 1023.06 1022.68 1022.24 1021.73 1021.16 1020.55 1019.94 1019.34 1018.78 1018.29 1017.88 1017.54 1017.26 1017.03 1016.82 1016.64 1016.46 1016.30 1016.17 1016.07 1016.02 1016.01 1016.03 1016.08 1016.13 1016.16 1016.16 1016.11 1016.02 1015.90
1027.43 1027.21 1026.94 1026.63 1026.29 1025.92 1025.54 1025.16 1024.81 1024.49 1024.19 1023.90 1023.61 1023.28 1022.90 1022.46 1021.94 1021.37 1020.76 1020.15 1019.56 1019.03 1018.57 1018.18 1017.85 1017.57 1017.32 1017.08 1016.85 1016.62 1016.39 1016.19 1016.03 1015.93 1015.87 1015.87 1015.90 1015.95 1015.98 1015.99 1015.97 1015.90 1015.81
1027.76 1027.50 1027.19 1026.84 1026.46 1026.05 1025.64 1025.25 1024.89 1024.56 1024.27 1023.99 1023.70 1023.38 1023.00 1022.55 1022.04 1021.48 1020.90 1020.32 1019.77 1019.29 1018.87 1018.52 1018.23 1017.96 1017.71 1017.45 1017.18 1016.90 1016.61 1016.35 1016.12 1015.96 1015.85 1015.79 1015.79 1015.80 1015.82 1015.81 1015.79 1015.73 1015.65
1027.93 1027.64 1027.30 1026.92 1026.50 1026.06 1025.63 1025.22 1024.85 1024.52 1024.22 1023.94 1023.65 1023.32 1022.95 1022.51 1022.01 1021.48 1020.94 1020.41 1019.93 1019.51 1019.15 1018.86 1018.60 1018.37 1018.12 1017.86 1017.56 1017.24 1016.91 1016.60 1016.32 1016.09 1015.92 1015.81 1015.75 1015.71 1015.68 1015.63 1015.57 1015.49 1015.40
1027.93 1027.62 1027.25 1026.83 1026.39 1025.93 1025.48 1025.05 1024.67 1024.33 1024.03 1023.74 1023.44 1023.12 1022.75 1022.32 1021.86 1021.37 1020.87 1020.41 1020.00 1019.64 1019.36 1019.12 1018.91 1018.71 1018.48 1018.22 1017.92 1017.58 1017.23 1016.88 1016.57 1016.30 1016.08 1015.91 1015.78 1015.67 1015.57 1015.46 1015.34 1015.22 1015.09
1027.79 1027.44 1027.05 1026.61 1026.14 1025.66 1025.19 1024.75 1024.36 1024.01 1023.70 1023.40 1023.11 1022.78 1022.43 1022.03 1021.60 1021.15 1020.72 1020.32 1019.97 1019.68 1019.45 1019.26 1019.09 1018.92 1018.71 1018.47 1018.17 1017.84 1017.49 1017.14 1016.81 1016.52 1016.27 1016.06 1015.87 1015.69 1015.51 1015.32 1015.12 1014.92 1014.72
1027.55 1027.17 1026.74 1026.27 1025.77 1025.27 1024.79 1024.35 1023.94 1023.59 1023.27 1022.97 1022.68 1022.37 1022.03 1021.66 1021.26 1020.87 1020.49 1020.14 1019.85 1019.61 1019.42 1019.26 1019.12 1018.96 1018.77 1018.55 1018.27 1017.97 1017.64 1017.32 1017.00 1016.72 1016.46 1016.22 1015.99 1015.75 1015.50 1015.22 1014.93 1014.63 1014.35
1027.27 1026.84 1026.37 1025.87 1025.35 1024.83 1024.33 1023.87 1023.47 1023.11 1022.79 1022.49 1022.20 1021.91 1021.59 1021.25 1020.90 1020.55 1020.21 1019.91 1019.65 1019.44 1019.27 1019.12 1018.98 1018.83 1018.66 1018.45 1018.20 1017.93 1017.65 1017.37 1017.10 1016.85 1016.61 1016.37 1016.12 1015.83 1015.52 1015.17 1014.79 1014.41 1014.04
1026.98 1026.50 1025.99 1025.45 1024.91 1024.37 1023.86 1023.39 1022.97 1022.60 1022.28 1021.99 1021.72 1021.44 1021.15 1020.85 1020.53 1020.22 1019.91 1019.64 1019.40 1019.19 1019.01 1018.86 1018.71 1018.55 1018.37 1018.18 1017.96 1017.74 1017.51 1017.30 1017.09 1016.89 1016.69 1016.48 1016.23 1015.93 1015.58 1015.18 1014.74 1014.29 1013.84
1026.71 1026.19 1025.63 1025.06 1024.48 1023.92 1023.39 1022.91 1022.49 1022.11 1021.79 1021.51 1021.24 1020.98 1020.72 1020.44 1020.16 1019.87 1019.59 1019.33 1019.09 1018.87 1018.68 1018.50 1018.33 1018.15 1017.97 1017.79 1017.60 1017.43 1017.26 1017.11 1016.98 1016.85 1016.71 1016.54 1016.31 1016.03 1015.67 1015.25 1014.78 1014.28 1013.77
1026.46 1025.89 1025.30 1024.70 1024.10 1023.52 1022.97 1022.47 1022.03 1021.64 1021.32 1021.03 1020.77 1020.53 1020.28 1020.04 1019.78 1019.51 1019.25 1018.99 1018.74 1018.51 1018.29 1018.08 1017.88 1017.69 1017.50 1017.33 1017.17 1017.04 1016.94 1016.85 1016.79 1016.73 1016.65 1016.53 1016.36 1016.10 1015.77 1015.35 1014.88 1014.37 1013.84
Thickness
5645 5646 5646 5647 5648 5649 5649 5650 5650 5651 5652 5653 5654 5654 5654 5654 5655 5655 5656 5657 5657 5658 5658 5657 5656 5656 5655 5655 5654 5653 5652 5651 5650 5649 5648 5648 5647 5647 5646 5645 5645 5644 5643
5639 5639 5640 5640 5641 5642 5642 5643 5644 5644 5645 5646 5647 5647 5648 5648 5648 5649 5649 5650 5651 5651 5651 5651 5650 5650 5649 5649 5648 5647 5646 5645 5644 5644 5643 5642 5641 5640 5639 5639 5638 5637 5637
5632 5632 5633 5633 5634 5635 5636 5636 5636 5637 5637 5638 5639 5640 5640 5641 5642 5642 5643 5643 5644 5644 5644 5644 5644 5644 5643 5643 5642 5641 5640 5640 5639 5638 5637 5636 5635 5634 5633 5632 5632 5631 5630
5624 5625 5626 5627 5627 5628 5628 5629 5629 5629 5629 5630 5630 5631 5632 5633 5634 5635 5635 5636 5636 5636 5637 5637 5637 5637 5636 5636 5636 5635 5634 5633 5632 5631 5630 5629 5628 5628 5627 5626 5625 5624 5624
5616 5618 5619 5620 5620 5621 5621 5621 5621 5621 5621 5621 5622 5623 5624 5625 5626 5627 5627 5628 5628 5629 5629 5629 5629 5629 5629 5629 5629 5628 5627 5627 5626 5625 5624 5623 5622 5621 5620 5619 5618 5617 5617
5608 5610 5611 5612 5613 5613 5613 5613 5613 5613 5613 5613 5613 5613 5614 5615 5617 5618 5619 5619 5620 5620 5621 5621 5621 5621 5621 5621 5621 5620 5620 5619 5619 5618 5617 5617 5616 5615 5613 5613 5611 5610 5609
5598 5600 5602 5603 5604 5605 5605 5605 5605 5604 5603 5604 5603 5602 5603 5605 5606 5607 5609 5610 5611 5611 5612 5612 5612 5613 5612 5612 5612 5612 5612 5611 5611 5610 5610 5610 5609 5607 5606 5605 5604 5603 5602
5589 5591 5593 5595 5595 5596 5596 5597 5597 5595 5594 5595 5595 5594 5592 5593 5594 5596 5597 5599 5600 5601 5602 5602 5603 5603 5603 5603 5603 5603 5603 5603 5602 5602 5602 5602 5601 5600 5599 5598 5596 5595 5594
5578 5582 5584 5585 5586 5587 5588 5589 5589 5588 5586 5586 5587 5587 5586 5585 5583 5584 5586 5587 5589 5591 5591 5592 5592 5593 5593 5593 5593 5594 5594 5594 5594 5594 5594 5594 5593 5592 5591 5589 5588 5587 5585
5567 5571 5574 5575 5576 5577 5578 5579 5580 5580 5580 5578 5577 5579 5580 5579 5577 5575 5575 5576 5578 5579 5580 5581 5582 5582 5583 5583 5584 5584 5584 5584 5584 5585 5585 5585 5584 5584 5583 5582 5580 5578 5576
5555 5559 5562 5564 5566 5567 5569 5569 5570 5570 5571 5571 5570 5569 5569 5568 5569 5568 5566 5565 5566 5568 5570 5571 5572 5572 5573 5574 5574 5574 5574 5574 5574 5575 5575 5576 5575 5574 5574 5572 5571 5569 5567
5543 5547 5550 5553 5555 5557 5558 5560 5560 5561 5561 5562 5561 5561 5561 5561 5560 5559 5558 5556 5556 5557 5559 5560 5561 5563 5563 5564 5564 5564 5564 5564 5563 5564 5564 5565 5564 5564 5563 5562 5560 5558 5557
5530 5534 5538 5541 5543 5546 5548 5549 5550 5551 5551 5551 5552 5552 5553 5553 5553 5552 5550 5547 5546 5546 5548 5550 5551 5552 5553 5553 5553 5554 5554 5554 5553 5553 5553 5553 5553 5552 5551 5550 5549 5547 5546
5519 5522 5526 5529 5532 5534 5537 5538 5539 5540 5541 5541 5542 5542 5543 5543 5543 5543 5542 5540 5537 5536 5537 5539 5540 5541 5543 5543 5543 5543 5542 5542 5542 5542 5541 5541 5541 5540 5539 5538 5537 5536 5535
5506 5510 5513 5517 5520 5522 5525 5527 5528 5529 5530 5531 5532 5533 5533 5533 5533 5533 5534 5533 5531 5529 5529 5529 5529 5531 5531 5532 5532 5532 5532 5532 5532 5531 5530 5530 5530 5528 5527 5526 5525 5525 5524
5494 5497 5501 5504 5507 5510 5513 5515 5517 5518 5519 5521 5521 5522 5523 5523 5523 5523 5523 5523 5523 5522 5520 5520 5519 5519 5520 5520 5520 5520 5520 5520 5520 5519 5519 5518 5517 5516 5515 5514 5513 5512 5511
5481 5485 5488 5491 5495 5498 5501 5503 5505 5507 5508 5509 5510 5512 5512 5512 5512 5512 5512 5512 5511 5511 5509 5508 5508 5508 5508 5508 5508 5508 5508 5508 5507 5506 5506 5506 5505 5504 5503 5502 5501 5500 5499
5468 5472 5475 5479 5482 5485 5488 5491 5493 5496 5497 5498 5500 5501 5501 5502 5502 5501 5501 5501 5500 5500 5499 5497 5496 5495 5496 5496 5495 5495 5494 5494 5494 5494 5493 5493 5492 5492 5490 5490 5488 5487 5486
5455 5460 5463 5467 5469 5472 5475 5478 5481 5483 5486 5487 5489 5490 5490 5491 5490 5490 5490 5489 5489 5488 5487 5486 5484 5483 5483 5483 5482 5481 5481 5481 5481 5480 5480 5480 5479 5479 5478 5477 5476 5475 5474
5443 5447 5451 5454 5457 5460 5462 5465 5467 5470 5473 5475 5477 5478 5479 5480 5480 5479 5478 5478 5477 5476 5475 5474 5473 5471 5470 5470 5469 5469 5468 5468 5467 5467 5467 5466 5466 5465 5465 5465 5464 5463 5462
5430 5434 5438 5441 5444 5447 5450 5452 5455 5458 5460 5462 5464 5466 5467 5469 5469 5469 5469 5467 5466 5465 5464 5463 5461 5460 5458 5458 5458 5457 5456 5455 5454 5454 5454 5454 5453 5453 5452 5452 5452 5451 5450
5417 5422 5426 5429 5432 5435 5438 5441 5444 5446 5448 5450 5452 5453 5455 5456 5457 5457 5457 5457 5457 5455 5454 5452 5451 5450 5448 5447 5447 5446 5444 5442 5442 5442 5440 5440 5440 5440 5440 5440 5440 5440 5439
5404 5409 5414 5417 5420 5422 5426 5429 5432 5434 5436 5438 5440 5441 5443 5444 5444 5444 5444 5444 5444 5444 5444 5443 5441 5439 5438 5437 5436 5434 5432 5430 5430 5429 5427 5428 5427 5427 5428 5428 5428 5428 5428
5393 5397 5401 5405 5408 5411 5414 5418 5420 5421 5423 5425 5427 5428 5430 5431 5432 5433 5433 5432 5432 5431 5431 5431 5431 5429 5428 5426 5425 5424 5421 5419 5418 5416 5416 5416 5416 5416 5417 5417 5417 5417 5416
5381 5385 5389 5392 5395 5399 5402 5405 5407 5409 5411 5412 5414 5416 5417 5418 5420 5421 5421 5420 5419 5418 5417 5417 5417 5417 5416 5414 5413 5411 5409 5408 5407 5406 5403 5403 5404 5404 5405 5406 5406 5405 5404
5369 5373 5376 5379 5382 5385 5388 5391 5394 5397 5398 5400 5401 5403 5404 5406 5407 5407 5408 5408 5407 5405 5405 5404 5404 5403 5403 5401 5400 5399 5397 5396 5395 5394 5393 5391 5391 5390 5393 5395 5395 5393 5393